When you browse on this site, cookies collect data to enhance your experience and personalize the content and advertising you see.
Visit our Privacy Policy to learn more. By continuing to use the site, you agree to this use of cookies and data.
EN

Hourly Weather Mikli

Today, 4 August, Tuesday

Time Temperature Precipitation Wind Pressure Humidity
00:00 +15°C° 0 mm 4 mps 754 mmHg 94%
01:00 +14°C° 0 mm 4 mps 755 mmHg 95%
02:00 +13°C° 0 mm 4 mps 755 mmHg 97%
03:00 +13°C° 0 mm 4 mps 755 mmHg 96%
04:00 +13°C° 0 mm 4 mps 755 mmHg 95%
05:00 +12°C° 0 mm 4 mps 755 mmHg 94%
06:00 +14°C° 0 mm 4 mps 756 mmHg 87%
07:00 +15°C° 0 mm 4 mps 756 mmHg 81%
08:00 +17°C° 0 mm 4 mps 756 mmHg 74%
09:00 +18°C° 0 mm 4 mps 756 mmHg 69%
10:00 +19°C° 0 mm 4 mps 757 mmHg 65%
11:00 +21°C° 0 mm 4 mps 757 mmHg 60%
12:00 +21°C° 0.1 mm 4 mps 757 mmHg 63%
13:00 +21°C° 0.1 mm 4 mps 757 mmHg 65%
14:00 +21°C° 0.1 mm 5 mps 757 mmHg 68%
15:00 +20°C° 0.1 mm 5 mps 757 mmHg 74%
16:00 +19°C° 0.1 mm 5 mps 756 mmHg 80%
17:00 +17°C° 0.1 mm 5 mps 756 mmHg 86%
18:00 +18°C° 1 mm 4 mps 756 mmHg 90%
19:00 +17°C° 1 mm 4 mps 756 mmHg 94%
20:00 +17°C° 1 mm 4 mps 755 mmHg 98%
21:00 +17°C° 1.2 mm 4 mps 755 mmHg 98%
22:00 +17°C° 1.2 mm 4 mps 755 mmHg 98%
23:00 +17°C° 1.2 mm 4 mps 755 mmHg 98%

Tomorrow, 5 August, Wednesday

Time Temperature Precipitation Wind Pressure Humidity
00:00 +17°C° 0.7 mm 4 mps 755 mmHg 98%
01:00 +17°C° 0.7 mm 4 mps 755 mmHg 98%
02:00 +17°C° 0.7 mm 4 mps 754 mmHg 98%
03:00 +17°C° 0.1 mm 4 mps 754 mmHg 97%
04:00 +16°C° 0.1 mm 5 mps 755 mmHg 96%
05:00 +15°C° 0.1 mm 5 mps 755 mmHg 96%
06:00 +17°C° 0 mm 4 mps 755 mmHg 92%
07:00 +17°C° 0 mm 4 mps 756 mmHg 88%
08:00 +18°C° 0 mm 4 mps 756 mmHg 85%
09:00 +19°C° 0 mm 4 mps 757 mmHg 74%
10:00 +20°C° 0 mm 4 mps 757 mmHg 64%
11:00 +21°C° 0 mm 4 mps 758 mmHg 53%
12:00 +22°C° 0 mm 4 mps 758 mmHg 52%
13:00 +22°C° 0 mm 4 mps 759 mmHg 50%
14:00 +23°C° 0 mm 4 mps 759 mmHg 48%
15:00 +22°C° 0 mm 4 mps 759 mmHg 48%
16:00 +22°C° 0 mm 4 mps 759 mmHg 48%
17:00 +22°C° 0 mm 4 mps 760 mmHg 48%
18:00 +21°C° 0 mm 4 mps 760 mmHg 55%
19:00 +19°C° 0 mm 3 mps 761 mmHg 62%
20:00 +18°C° 0 mm 3 mps 761 mmHg 70%
21:00 +17°C° 0 mm 3 mps 761 mmHg 73%
22:00 +17°C° 0 mm 3 mps 762 mmHg 77%
23:00 +16°C° 0 mm 3 mps 762 mmHg 81%

Day after tomorrow, 6 August, Thursday

Time Temperature Precipitation Wind Pressure Humidity
00:00 +16°C° 0 mm 3 mps 762 mmHg 79%
01:00 +16°C° 0 mm 3 mps 762 mmHg 77%
02:00 +15°C° 0 mm 4 mps 763 mmHg 75%
03:00 +14°C° 0 mm 4 mps 763 mmHg 77%
04:00 +14°C° 0 mm 4 mps 763 mmHg 80%
05:00 +13°C° 0 mm 4 mps 763 mmHg 82%
06:00 +14°C° 0 mm 4 mps 764 mmHg 78%
07:00 +15°C° 0 mm 4 mps 764 mmHg 74%
08:00 +17°C° 0 mm 3 mps 764 mmHg 70%
09:00 +18°C° 0 mm 3 mps 765 mmHg 67%
10:00 +18°C° 0 mm 3 mps 765 mmHg 65%
11:00 +19°C° 0 mm 3 mps 765 mmHg 62%
12:00 +19°C° 0 mm 2 mps 765 mmHg 65%
13:00 +19°C° 0 mm 2 mps 766 mmHg 69%
14:00 +19°C° 0 mm 2 mps 766 mmHg 72%
15:00 +19°C° 0 mm 2 mps 766 mmHg 75%
16:00 +18°C° 0 mm 2 mps 766 mmHg 78%
17:00 +18°C° 0 mm 2 mps 766 mmHg 81%
18:00 +19°C° 0 mm 1 mps 766 mmHg 84%
19:00 +18°C° 0 mm 1 mps 766 mmHg 88%
20:00 +16°C° 0 mm 0 mps 766 mmHg 91%
21:00 +15°C° 0 mm 0 mps 767 mmHg 92%
22:00 +15°C° 0 mm 0 mps 767 mmHg 94%
23:00 +15°C° 0 mm 1 mps 767 mmHg 95%

7 August, Friday

Time Temperature Precipitation Wind Pressure Humidity
00:00 +15°C° 0 mm 1 mps 768 mmHg 95%
01:00 +15°C° 0 mm 1 mps 768 mmHg 95%
02:00 +15°C° 0 mm 1 mps 768 mmHg 96%
03:00 +15°C° 0 mm 1 mps 768 mmHg 95%
04:00 +15°C° 0 mm 1 mps 768 mmHg 95%
05:00 +16°C° 0 mm 1 mps 769 mmHg 95%
06:00 +18°C° 0 mm 1 mps 769 mmHg 91%
07:00 +19°C° 0 mm 1 mps 769 mmHg 87%
08:00 +20°C° 0 mm 1 mps 769 mmHg 82%
09:00 +21°C° 0 mm 1 mps 769 mmHg 77%
10:00 +21°C° 0 mm 2 mps 769 mmHg 71%
11:00 +24°C° 0 mm 2 mps 769 mmHg 65%
12:00 +24°C° 0 mm 2 mps 769 mmHg 64%
13:00 +24°C° 0 mm 2 mps 769 mmHg 63%
14:00 +25°C° 0 mm 2 mps 769 mmHg 62%
15:00 +24°C° 0 mm 2 mps 769 mmHg 64%
16:00 +24°C° 0 mm 2 mps 769 mmHg 66%
17:00 +23°C° 0 mm 2 mps 769 mmHg 67%
18:00 +22°C° 0 mm 1 mps 769 mmHg 73%
19:00 +20°C° 0 mm 1 mps 769 mmHg 79%
20:00 +19°C° 0 mm 1 mps 769 mmHg 86%
21:00 +18°C° 0 mm 1 mps 769 mmHg 87%
22:00 +18°C° 0 mm 1 mps 770 mmHg 88%
23:00 +16°C° 0 mm 1 mps 770 mmHg 90%

8 August, Saturday

Time Temperature Precipitation Wind Pressure Humidity
00:00 +16°C° 0 mm 1 mps 770 mmHg 90%
01:00 +15°C° 0 mm 1 mps 770 mmHg 91%
02:00 +15°C° 0 mm 1 mps 770 mmHg 91%
03:00 +15°C° 0 mm 1 mps 770 mmHg 90%
04:00 +15°C° 0 mm 1 mps 770 mmHg 89%
05:00 +15°C° 0 mm 1 mps 770 mmHg 88%
06:00 +18°C° 0 mm 1 mps 770 mmHg 81%
07:00 +20°C° 0 mm 1 mps 770 mmHg 73%
08:00 +21°C° 0 mm 2 mps 770 mmHg 66%
09:00 +23°C° 0 mm 2 mps 770 mmHg 60%
10:00 +24°C° 0 mm 2 mps 770 mmHg 55%
11:00 +25°C° 0 mm 2 mps 770 mmHg 50%
12:00 +25°C° 0 mm 2 mps 770 mmHg 49%
13:00 +26°C° 0 mm 2 mps 769 mmHg 48%
14:00 +26°C° 0 mm 2 mps 769 mmHg 47%
15:00 +25°C° 0 mm 2 mps 769 mmHg 48%
16:00 +25°C° 0 mm 1 mps 769 mmHg 49%
17:00 +25°C° 0 mm 1 mps 769 mmHg 51%
18:00 +23°C° 0 mm 1 mps 768 mmHg 58%
19:00 +21°C° 0 mm 1 mps 768 mmHg 65%
20:00 +17°C° 0 mm 0 mps 768 mmHg 73%
21:00 +18°C° 0 mm 1 mps 768 mmHg 73%
22:00 +18°C° 0 mm 1 mps 768 mmHg 73%
23:00 +16°C° 0 mm 1 mps 768 mmHg 73%

9 August, Sunday

Time Temperature Precipitation Wind Pressure Humidity
00:00 +16°C° 0 mm 1 mps 768 mmHg 74%
01:00 +16°C° 0 mm 1 mps 768 mmHg 75%
02:00 +16°C° 0 mm 1 mps 768 mmHg 76%
03:00 +16°C° 0 mm 1 mps 768 mmHg 77%
04:00 +16°C° 0 mm 1 mps 768 mmHg 78%
05:00 +16°C° 0 mm 1 mps 768 mmHg 79%
06:00 +18°C° 0 mm 2 mps 768 mmHg 73%
07:00 +19°C° 0 mm 2 mps 767 mmHg 67%
08:00 +21°C° 0 mm 2 mps 767 mmHg 61%
09:00 +23°C° 0 mm 2 mps 767 mmHg 57%
10:00 +24°C° 0 mm 2 mps 767 mmHg 53%
11:00 +25°C° 0 mm 2 mps 767 mmHg 50%
12:00 +25°C° 0 mm 2 mps 766 mmHg 49%
13:00 +25°C° 0 mm 2 mps 766 mmHg 48%
14:00 +25°C° 0 mm 2 mps 766 mmHg 47%
15:00 +25°C° 0 mm 2 mps 765 mmHg 48%
16:00 +24°C° 0 mm 2 mps 765 mmHg 49%
17:00 +24°C° 0 mm 2 mps 765 mmHg 50%
18:00 +22°C° 0 mm 1 mps 765 mmHg 56%
19:00 +20°C° 0 mm 1 mps 765 mmHg 63%
20:00 +16°C° 0 mm 0 mps 765 mmHg 70%
21:00 +16°C° 0 mm 0 mps 765 mmHg 70%
22:00 +15°C° 0 mm 0 mps 765 mmHg 70%
23:00 +15°C° 0 mm 0 mps 765 mmHg 70%
Show more